RS-30
1 32953U 08025A 13187.69958251 .00000010 00000-0 00000 0 0 50
2 32953 082.5011 056.0595 0017720 187.7050 172.3758 12.43034820232339
METEOR-M
1 35865U 09049A 13187.71804541 -.00000025 00000-0 83436-5 0 5981
2 35865 098.6004 239.6609 0003120 031.0365 329.0988 14.21889128197241
RS-38
1 35869U 09049E 13187.67762321 .00000027 00000-0 31369-4 0 5561
2 35869 098.5946 239.5315 0005317 025.1779 334.9657 14.22135456197264
JUGNU
1 37839U 11058B 13187.39342354 .00000312 00000-0 24807-4 0 4185
2 37839 019.9602 190.4081 0019113 134.5103 009.7153 14.12165053 89611
SRMSAT
1 37841U 11058D 13187.47421196 .00000300 00000-0 19854-4 0 4205
2 37841 019.9704 202.3565 0012060 088.1475 037.6495 14.10233619 89494
RAX-2
1 37853U 11061D 13187.45385324 .00002239 00000-0 17602-3 0 5383
2 37853 101.7104 050.0211 0234459 332.3097 077.5765 14.83830060 91308
AUBIESAT
1 37854U 11061E 13187.33447067 .00002911 00000-0 22098-3 0 5331
2 37854 101.7138 050.7540 0234188 331.2201 080.8561 14.84567158 91309
HRBE
1 37855U 11061F 13187.21905664 .00002724 00000-0 20859-3 0 5369
2 37855 101.7140 050.3315 0235313 332.0516 137.6382 14.84216892 91272
RS-39
1 38051U 11062C 13187.81028568 .00010796 00000-0 34210-3 0 5795
2 38051 051.6338 115.8177 0011099 343.9031 065.6390 15.33194478 80796
E-STAR
1 38079U 12006C 13187.95050111 .00039327 00000-0 80649-3 0 2658
2 38079 069.4701 135.2253 0602995 111.0638 255.6454 14.48433481 72604
GOLIAT
1 38085U 12006J 13187.86526933 .00060280 33676-5 12545-2 0 1835
2 38085 069.4751 137.7502 0613036 112.2548 344.4361 14.46246169 72529
HORYU-2
1 38340U 12025D 13186.87778007 .00000657 00000-0 11546-3 0 5399
2 38340 098.2153 134.6923 0012002 189.3443 170.7537 14.70999539 60869
RS-40
1 38736U 12041D 13186.98974826 .00000010 00000-0 00000 0 0 3115
2 38736 082.4782 143.4019 0020272 288.4296 071.4582 12.42868867 42582
PROITERES
1 38756U 12047B 13187.86572327 .00000378 00000-0 65148-4 0 9113
2 38756 098.2519 265.2703 0013652 048.2435 311.9927 14.74257027 44293
RAIKO
1 38852U 98067CN 13186.87630905 .00233319 00000-0 82435-3 0 2734
2 38852 051.6380 350.9077 0002858 057.1520 303.2043 15.87885419 42844
FITSAT 1
1 38853U 98067CP 13184.86912902 .06638326 12312-4 50483-3 0 3153
2 38853 051.6252 351.6077 0011722 245.9321 114.2104 16.39337660 42708
TechEdSat
1 38854U 98067CQ 13124.93253577 .11592855 12481-4 94246-3 0 2908
2 38854 051.6449 297.0261 0010505 310.8629 049.0629 16.38844728 33294
F 1
1 38855U 98067CR 13129.77714356 .27424026 12535-4 30797-3 0 2871
2 38855 051.5085 272.4145 0008326 194.2908 166.5495 16.49710473 33949
WeWish
1 38856U 98067CS 13069.98095549 .16701328 12537-4 10063-2 0 2487
2 38856 051.6166 215.0521 0008325 316.0438 044.8765 16.41348316 24586
OSSI-1
1 39131U 13015B 13180.28010488 .00567638 70157-5 68935-3 0 64
2 39131 064.8839 144.9671 0082023 027.6799 332.8219 16.01085619 11078
BEESAT-3
1 39134U 13015E 13187.87469517 .00002669 00000-0 22408-3 0 2015
2 39134 064.8781 146.7415 0011042 205.7007 154.3580 15.00454006 11781
BEESAT-2
1 39136U 13015G 13187.74180752 .00002363 00000-0 20014-3 0 1789
2 39136 064.8781 147.1620 0011278 205.6939 154.3634 15.00413931 11760
